LDPE-2

Last updated on Wed Mar 11 2026 00:02:56 GMT+0000 (Coordinated Universal Time)

1 54219U 22144A 26069.53685365 -.00000360 00000+0 00000+0 0 9996 2 54219 5.4023 64.2540 0000243 267.0195 139.7088 1.00555223 10850
UTC large
Height (km)
Speed (km/s)
/
Latitude / Longitude
Inclination (degrees)
Orbital Period (minutes)
Azimuth
Elevation
Range (km)
Doppler Factor

Next 0 passes for location: London (51.5072 / 0.1276)

Sorry there are no passes over London.